KJ4CO Weather Reports


time (UTC)temp
C
wind
direction
speed
KPH
gust
KPH
rain 1hr
cm
rain 24hr
cm
rain mn
cm
humidity
%
barometer
mb
20260504081511 16 122 0.0 0.0 0.00 0.00 0.00 63 1011.2
20260504044552 16 121 0.0 0.0 0.00 0.00 0.00 57 1012.8
20260504043046 16 121 0.0 0.0 0.00 0.00 0.00 56 1012.9
20260504041546 16 121 0.0 0.0 0.00 0.00 0.00 57 1013.1
20260504040100 16 121 0.0 0.0 0.00 0.00 0.00 57 1013.2
20260504034556 16 121 0.0 0.0 0.00 0.00 0.00 57 1013.3
20260504033114 16 121 0.0 0.0 0.00 0.00 0.00 56 1013.4
20260504031544 16 121 0.0 0.0 0.00 0.00 0.00 55 1013.5
20260504030047 16 121 0.0 0.0 0.00 0.00 0.00 55 1013.5
20260504024544 16 121 0.0 0.0 0.00 0.00 0.00 55 1013.4
20260504023057 17 121 0.0 0.0 0.00 0.00 0.00 53 1013.2
20260504021541 17 121 0.0 0.0 0.00 0.00 0.00 53 1013.2
20260504020141 17 121 0.0 0.0 0.00 0.00 0.00 53 1013.1
20260504014547 17 121 0.0 0.0 0.00 0.00 0.00 52 1013.0
20260504013045 18 121 0.0 0.0 0.00 0.00 0.00 49 1013.2
20260504011537 18 121 0.0 0.0 0.00 0.00 0.00 48 1013.1
20260504010046 19 121 0.0 0.0 0.00 0.00 0.00 46 1013.4
20260504004542 19 121 0.0 0.0 0.00 0.00 0.00 44 1013.3
20260504003037 20 121 0.0 0.0 0.00 0.00 0.00 43 1013.3
20260504001534 20 121 0.0 0.0 0.00 0.00 0.00 42 1013.3
20260504000033 21 121 0.0 0.0 0.00 0.00 0.00 41 1013.5
20260503234540 21 124 0.0 0.0 0.00 0.00 0.00 40 1013.6
20260503233031 21 122 0.0 0.0 0.00 0.00 0.00 39 1013.6
20260503231533 21 130 0.0 0.0 0.00 0.00 0.00 40 1013.9
20260503230027 22 129 0.0 0.0 0.00 0.00 0.00 40 1014.1
20260503224525 22 131 0.0 3.2 0.00 0.00 0.00 38 1014.3
20260503223024 22 130 0.0 0.0 0.00 0.00 0.00 38 1014.4
20260503221521 22 123 0.0 0.0 0.00 0.00 0.00 39 1014.6
20260503220022 22 105 0.0 0.0 0.00 0.00 0.00 39 1014.8
20260503214515 22 121 0.0 0.0 0.00 0.00 0.00 39 1015.0
20260503213012 21 113 0.0 0.0 0.00 0.00 0.00 40 1015.5
20260503211508 21 125 0.0 0.0 0.00 0.00 0.00 42 1015.7
20260503210006 21 126 0.0 0.0 0.00 0.00 0.00 41 1016.0
20260503204503 21 137 0.0 1.6 0.00 0.00 0.00 42 1016.4
20260503203105 21 130 0.0 0.0 0.00 0.00 0.00 40 1016.7
20260503201558 21 128 0.0 0.0 0.00 0.00 0.00 43 1017.2
20260503200058 21 125 0.0 0.0 0.00 0.00 0.00 42 1017.5
20260503194549 20 103 0.0 0.0 0.00 0.00 0.00 45 1017.6
20260503193053 20 120 0.0 0.0 0.00 0.00 0.00 44 1017.9
20260503191544 20 122 0.0 0.0 0.00 0.00 0.00 46 1018.4
20260503190041 20 120 0.0 0.0 0.00 0.00 0.00 46 1018.8
20260503184550 19 113 0.0 0.0 0.00 0.00 0.00 47 1019.3
20260503183049 18 128 0.0 0.0 0.00 0.00 0.00 47 1019.5
20260503181533 18 135 0.0 0.0 0.00 0.00 0.00 46 1019.6
20260503180034 18 109 0.0 0.0 0.00 0.00 0.00 48 1020.0
20260503174527 18 122 0.0 0.0 0.00 0.00 0.00 46 1020.1
20260503173032 17 131 0.0 0.0 0.00 0.00 0.00 47 1020.3
20260503171523 17 125 0.0 0.0 0.00 0.00 0.00 48 1020.4
20260503150107 14 115 0.0 0.0 0.00 0.00 0.00 61 1021.7